www.pogodaiklimat.ru

Погода и климат >> Архив погоды >> Россия >> Якутия >> Нюрба


ПОГОДА в Нюрбе

  • Прогноз погоды в Нюрбе
  • Монитор погоды в Нюрбе
  • Климат города

АРХИВ ПОГОДЫ в Нюрбе

Время (UTC), дата Ветер
(напр.,м/с)
 
Видим.   Явления Облачность Т
(С)
Тd
(С)
f
(%)
Тe
(С)
Тes
(С)
Комфортность P
(гПа)
Po
(гПа)
Тmin
(С)
Tmax
(С)
R
(мм)
R24
(мм)
S
(см)
09 14.10 ЮЗ 2 50 км 10/8 960 м
[Sc Ac und]
-2.6 -5.9 78 -6 -6 1019.5 1004.2
12 14.10 ЮЗ 1 50 км 10/6 800 м
[Sc Ac und]
-6.3 -7.8 89 -9 -9 1020.9 1005.4 -1.0 0.2
15 14.10 ЮЗ 1 50 км 10/10 800 м
[Sc]
-5.0 -5.7 95 -8 -8 1021.0 1005.6
18 14.10 штиль 0 50 км 10/8 750 м
[Sc Ci fib]
-8.8 -9.5 95 -9 -9 1021.8 1006.2
21 14.10 штиль 0 50 км 10/8 840 м
[Sc Ci fib]
-11.0 -12.3 90 -11 -11 1022.4 1006.7
00 15.10 СВ 1 20 км {снег} 10/6 570 м
[St Cs]
-11.0 -12.3 90 -13 -13 1023.1 1007.4 -11.4 0.0 2
03 15.10 СВ 1 50 км {снег} 10/6 540 м
[St Cs]
-6.4 -8.3 86 -9 -8 1024.1 1008.5
06 15.10 В 1 10 км слабый снег 10/6 660 м
[Sc Cs]
-3.8 -7.1 78 -6 -6 1025.3 1010.0
09 15.10 З 1 50 км в посл. час снег 10/6 720 м
[Sc As op Ci ing]
-4.4 -7.5 79 -7 -7 1026.5 1011.1
12 15.10 штиль 0 20 км слабый снег 10/0
[As trans Cs]
-7.8 -9.2 90 -9 -9 1028.0 1012.4 -3.4 0.6
15 15.10 З 1 50 км {снег} 10/6 800 м
[Sc As trans Cs]
-7.2 -8.5 90 -10 -10 1029.3 1013.6
18 15.10 З 1 50 км {снег} 10/6 800 м
[Sc As op]
-6.4 -8.0 88 -9 -9 1030.3 1014.7
21 15.10 З 2 50 км 10/6 840 м
[Sc As op]
-6.2 -7.7 89 -11 -11 1031.1 1015.5
00 16.10 З 2 20 км слабый снег 10/8 480 м
[St As op]
-6.0 -7.5 89 -10 -10 1032.4 1016.8 -7.9 0.2 2
03 16.10 ЮЗ 2 20 км слабый снег 10/8 300 м
[St As op]
-5.4 -7.2 87 -10 -10 1032.9 1017.4
06 16.10 ЮЗ 3 20 км слабый снег 10/8 570 м
[St As op]
-4.5 -6.8 84 -10 -10 1033.3 1017.7
09 16.10 З 1 20 км слабый снег 10/8 700 м
[Sc As op]
-4.7 -7.8 79 -7 -7 1033.5 1017.9
12 16.10 штиль 0 50 км {снег} 10/8 750 м
[Sc As op]
-8.5 -9.6 92 -9 -9 1033.6 1017.8 -4.5 0.0
15 16.10 штиль 0 50 км 10/10 750 м
[Sc]
-10.5 -11.8 90 -11 -11 1033.5 1017.5
18 16.10 штиль 0 50 км 6/4 600 м
[Sc Ac trans]
-16.4 -17.7 90 -16 -16 1032.9 1016.7
21 16.10 штиль 0 50 км 6/4 600 м
[Sc Ac trans]
-18.4 -20.3 85 -18 -18 1032.9 1016.5
00 17.10 штиль 0 1000 м дымка 3/0
[Ac trans]
-18.9 -20.1 90 -19 -19 1031.2 1014.8 -19.0 2
03 17.10 штиль 0 20 км 3/3 300 м
[St]
-12.8 -14.8 85 -13 -12 1029.7 1013.7
06 17.10 СВ 2 50 км 3/0
[Ci fib]
-7.1 -10.5 77 -11 -11 1026.9 1011.3
09 17.10 СВ 2 50 км 5/0
[Cs]
-9.3 -11.4 85 -14 -14 1025.1 1009.4
12 17.10 СВ 2 50 км 5/0
[Ac trans Ci fib]
-11.5 -12.8 90 -16 -16 1023.9 1008.1 -6.3
15 17.10 СВ 2 50 км 4/0
[Ci fib]
-12.9 -14.2 90 -18 -18 1022.0 1006.1
18 17.10 СВ 2 50 км 4/0
[Ci fib]
-13.4 -14.7 90 -18 -18 1019.8 1003.9
21 17.10 СВ 2 50 км 4/0
[Ci fib]
-13.7 -15.0 90 -18 -18 1017.9 1002.1
00 18.10 СВ 2 50 км 10/0
[Ac As Ci fib]
-14.6 -16.6 85 -20 -20 1017.7 1001.8 -14.6 2
03 18.10 СВ 4 50 км 10/0
[As op]
-11.9 -14.6 80 -19 -19 1016.4 1000.7
06 18.10 В 2 4000 м слабый ливневой снег 10/6 480 м
[Cb cap As op]
-9.5 -12.1 81 -14 -14 1016.6 1001.1
09 18.10 СВ 1 20 км слабый ливневой снег 10/6 500 м
[Cb cap As op]
-10.1 -12.1 85 -12 -12 1017.6 1002.0
12 18.10 штиль 0 10 км слабый ливневой снег 10/6 480 м
[Cb cap As op]
-12.1 -13.4 90 -12 -12 1018.7 1002.9 -9.3 1
15 18.10 штиль 0 10 км слабый ливневой снег 10/8 540 м
[Cb cap As op]
-11.0 -12.3 90 -11 -11 1018.5 1003.2
18 18.10 штиль 0 10 км слабый ливневой снег 10/8 540 м
[Cb cap As op]
-12.6 -13.9 90 -13 -13 1019.6 1003.8
21 18.10 СВ 1 10 км слабый ливневой снег 10/8 500 м
[Cb cap As op]
-12.7 -14.0 90 -15 -15 1020.8 1004.9
00 19.10 СВ 1 10 км слабый снег {ливн. осадки} 10/0 480 м
[As op]
-12.8 -14.1 90 -15 -15 1022.0 1006.1 -12.9 1 8
03 19.10 В 2 20 км слабый снег 10/0 480 м
[As op]
-12.3 -14.3 85 -17 -17 1024.1 1008.2
06 19.10 СВ 1 20 км слабый снег 10/0 480 м
[As op]
-10.7 -13.5 80 -13 -13 1025.3 1009.5
09 19.10 СВ 1 20 км слабый снег 10/0 480 м
[As op]
-11.1 -13.9 80 -13 -13 1026.9 1011.1
12 19.10 штиль 0 20 км слабый снег 10/0 570 м
[As op]
-12.1 -14.1 85 -12 -12 1028.6 1012.7 -10.5 0.2
15 19.10 СЗ 1 20 км слабый снег 10/0 570 м
[As op]
-15.3 -16.6 90 -18 -18 1030.1 1014.0
18 19.10 З 1 50 км {снег} 10/5 600 м
[St As trans]
-21.0 -22.8 85 -24 -24 1031.2 1014.7
21 19.10 З 1 50 км 10/6 570 м
[St As op]
-19.0 -20.9 85 -22 -22 1032.6 1016.2
00 20.10 штиль 0 20 км слабый снег 10/0 400 м
[As op]
-15.1 -16.4 90 -15 -15 1032.8 1016.7 -22.4 0.2 7
03 20.10 З 2 20 км слабый снег 10/0 420 м
[As op]
-11.4 -13.4 85 -16 -16 1033.7 1017.7
06 20.10 З 3 20 км слабый снег 10/0 450 м
[As op]
-11.1 -13.9 80 -17 -17 1033.1 1017.2
09 20.10 ЮЗ 3 20 км слабый снег 10/0 420 м
[As op]
-12.3 -15.0 80 -18 -18 1033.0 1017.0
12 20.10 З 3 50 км {снег} 10/8 500 м
[St As op]
-13.2 -15.9 80 -19 -19 1032.7 1016.7 -10.9 0.4
15 20.10 ЮЗ 3 50 км 10/5 600 м
[St As op]
-14.4 -16.4 85 -21 -21 1031.5 1015.4
18 20.10 Ю 3 50 км 10/4 600 м
[St As op]
-14.1 -16.1 85 -21 -21 1029.9 1013.9
21 20.10 ЮЗ 4 50 км 10/4 600 м
[St As op]
-13.3 -15.3 85 -21 -21 1028.3 1012.4
00 21.10 Ю 5 10 км слабый снег 10/4 300 м
[St As op]
-12.4 -14.4 85 -20 -20 1027.0 1011.1 -14.6 0.2 7
03 21.10 Ю 4 10 км слабый снег 10/4 300 м
[St As op]
-10.4 -13.2 80 -17 -17 1025.2 1009.4
06 21.10 Ю 5 4000 м слабый ливневой снег 10/8 720 м
[Cb cap As op]
-8.0 -11.2 78 -16 -16 1023.5 1007.9

 

Местоположение метеостанции Нюрба (Якутия, Россия): широта 63.28 долгота 118.30 высота над уровнем моря 119 м.

В архиве по умолчанию представлена погода в Нюрбе за последнюю неделю. Архивные данные за месяц целиком и за предыдущие месяцы, начиная с января 2011 года, Вы можете получить, выбрав интересующий диапазон дат из раскрывающегося списка и нажав кнопку "Ввод!".

Внимание! Время в таблицах - всемирное. Для получения местного времени необходимо прибавить поправку, которая в Нюрбе равна 9 ч.

Смотрите также архив погоды в соседних городах и на ближайших метеорологических станциях:

Погода в Верхневилюйске (Якутия, Россия) (97 км)
Погода в Чумпуруке (Якутия, Россия) (126 км)
Погода в Сунтаре (Якутия, Россия) (129 км)
Погода в Крестяхе (Якутия, Россия) (159 км)
Погода в Вилюйске (Якутия, Россия) (172 км)
Погода в Мирном (Якутия, Россия) (243 км)
Погода в Килиере (Якутия, Россия) (264 км)
Погода в Дорожном (Якутия, Россия) (265 км)
Погода в Чернышевском (Якутия, Россия) (298 км)
Погода в Эйке (Якутия, Россия) (309 км)

Пояснения к столбцам:

Ветер - указаны скорость ветра в м/с - средняя за 10 мин, порывы в срок и между сроками (в фигурных скобках) и направление, откуда дует ветер: С - северный, СВ - северо-восточный, В - восточный, ЮВ - юго-восточный, Ю - южный, ЮЗ - юго-западный, З - западный, СЗ - северо-западный.
Видимость - горизонтальная дальность видимости в метрах или километрах. При видимости от 1 до 10 км при отсутствии осадков обычно наблюдается дымка, при ухудшении видимости до 1 км и менее - туман. В сухую погоду видимость может ухудшаться дымом, пылью или мглою.
Явления - указаны атмосферные явления, наблюдавшиеся в срок или в последний час перед сроком; фигурными скобками обозначены явления, наблюдавшиеся между сроками (за 1-3 часа до срока); квадратными скобками обозначены град или гололедные отложения с указанием их диаметра в мм.
Облачность - указаны через наклонную черту общая и нижняя облачность в баллах и высота нижней границы облаков в метрах; квадратными скобками обозначены формы облаков: Ci - перистые, Cs - перисто-слоистые, Cc - перисто-кучевые, Ac - высококучевые, As - высокослоистые, Sc - слоисто-кучевые, Ns - слоисто-дождевые, Cu - кучевые, Cb - кучево-дождевые. Подробнее классификацию облаков см. в Атласе облаков (PDF).
T - Температура воздуха - температура, измеренная на высоте 2 м над землей.
Td - Температура точки росы - температура, при понижении до которой содержащийся в воздухе водяной пар достигнет насыщения.
f - Относительная влажность воздуха - влажноcть воздуха, измеренная на высоте 2 м над землей.
Te - Эффективная температура - температура, которую ощущает одетый по сезону человек в тени. Характеристика душности погоды. При расчете учитывается влияние влажности воздуха и скорости ветра на теплоощущения человека.
Tes - Эффективная температура на солнце - температура, которую ощущает человек, с поправкой на солнечный нагрев. Характеристика знойности погоды. Зависит от высоты солнца над горизонтом, облачности и скорости ветра. Ночью, в пасмурную погоду, а также при ветре 12 м/с и более поправка равна нулю.
P - Атмосферное давление - приведенное к уровню моря атмосферное давление.
Po - Атмосферное давление - измеренное на уровне метеостанции атмосферное давление.
Tmin - Минимальная температура - минимум температуры воздуха на высоте 2 м над землей.
Tmax - Максимальная температура - максимум температуры воздуха на высоте 2 м над землей.
R - Количество осадков - Количество выпавших осадков за период времени, мм. При наведении курсора мыши на число - период времени, за который выпало указанное количество осадков.
R24 - Количество осадков - Количество выпавших осадков за 24 часа, мм.
S - Снежный покров - Высота снежного покрова, см. При наведении курсора мыши на число - состояние снежного покрова и степень покрытия местности в баллах.